Tallinn, Estonia

5:38 PM EET on February 20, 2017 (GMT +0200)
Ulemiste

Weather History for EETN - February, 2014

Change the Weather History Date:

Monday, February 10, 2014

  Actual Average Record
Temperature  
Mean Temperature 34 °F -  
Max Temperature 36 °F 29 °F 44 °F (2015)
Min Temperature 33 °F 17 °F -5 °F (1999)
Degree Days  
Heating Degree Days 30    
Moisture  
Dew Point 34 °F    
Average Humidity 98    
Maximum Humidity 100    
Minimum Humidity 93    
Precipitation  
Precipitation 0.12 in 0.04 in - ()
Sea Level Pressure  
Sea Level Pressure 29.63 in    
Wind  
Wind Speed 5 mph ()    
Max Wind Speed 9 mph    
Max Gust Speed -    
Visibility 2.9 miles    
Events Fog , Rain    
Averages and records for this station are not official NWS values.
T = Trace of Precipitation, MM = Missing Value Source: Averaged Metar Reports

Daily Weather History Graph

Daily Weather History Graph

Search for Another Location

Airport or City:

Trip Planner

Search our weather history database for the weather conditions in past years. The results will help you decide how hot, cold, wet, or windy it might be!

Date:

Astronomy

Feb. 10, 2014 Rise Set
Actual Time 8:10 AM EET 5:00 PM EET
Civil Twilight 7:26 AM EET 5:44 PM EET
Nautical Twilight 6:37 AM EET 6:33 PM EET
Astronomical Twilight 5:50 AM EET 7:20 PM EET
Moon 12:45 PM EET (2/10) 5:16 AM EET (2/10)
Length of Visible Light 10h 18m
Length of Day
8h 50m
Waxing Gibbous, 82% of the Moon is Illuminated
Feb 10
Waxing Gibbous
Feb 15
Full
Feb 22
Last Quarter
Mar 1
New
Mar 8
First Quarter

Hourly Weather History & Observations

Time (EET) Temp. Windchill Dew Point Humidity Pressure Visibility Wind Dir Wind Speed Gust Speed Precip Events Conditions
12:20 AM 35.6 °F 29.2 °F 33.8 °F 93% 29.56 in 5.0 mi South 8.1 mph - N/A   Overcast
12:50 AM 35.6 °F 29.2 °F 33.8 °F 93% 29.59 in 3.1 mi South 8.1 mph - N/A   Overcast
1:20 AM 35.6 °F 29.9 °F 33.8 °F 93% 29.59 in - South 6.9 mph - N/A   Overcast
1:50 AM 35.6 °F 29.2 °F 33.8 °F 93% 29.59 in 1.6 mi South 8.1 mph - N/A   Overcast
2:00 AM 35 °F - 35 °F 100% 29.62 in 4 mi South 8.9 mph - -   Mist
2:20 AM 35.6 °F 29.9 °F 33.8 °F 93% 29.59 in 1.7 mi South 6.9 mph - N/A   Overcast
2:50 AM 35.6 °F 30.7 °F 33.8 °F 93% 29.59 in 1.7 mi South 5.8 mph - N/A   Overcast
3:20 AM 33.8 °F 28.6 °F 33.8 °F 100% 29.59 in 0.9 mi SSE 5.8 mph - N/A   Overcast
3:50 AM 33.8 °F 28.6 °F 33.8 °F 100% 29.59 in 0.7 mi South 5.8 mph - N/A   Overcast
4:20 AM 33.8 °F 28.6 °F 33.8 °F 100% 29.59 in 0.4 mi SSE 5.8 mph - N/A Fog Fog
4:50 AM 33.8 °F 28.6 °F 33.8 °F 100% 29.59 in 0.3 mi SSE 5.8 mph - N/A Fog Fog
5:00 AM 35 °F - 35 °F 97% 29.62 in 1 mi SSE 4.5 mph - -   Mist
5:20 AM 33.8 °F 29.6 °F 33.8 °F 100% 29.59 in 0.2 mi SSE 4.6 mph - N/A Fog Fog
5:50 AM 33.8 °F 29.6 °F 33.8 °F 100% 29.62 in 0.2 mi South 4.6 mph - N/A Fog Fog
6:20 AM 33.8 °F 28.6 °F 33.8 °F 100% 29.62 in 0.2 mi SSE 5.8 mph - N/A Fog Fog
6:50 AM 33.8 °F 28.6 °F 33.8 °F 100% 29.62 in 0.2 mi SE 5.8 mph - N/A Fog Fog
7:20 AM 33.8 °F 27.7 °F 33.8 °F 100% 29.62 in 0.2 mi SE 6.9 mph - N/A Fog Fog
7:50 AM 33.8 °F 27.7 °F 33.8 °F 100% 29.62 in 0.4 mi SE 6.9 mph - N/A Fog Fog
8:00 AM 34 °F - 34 °F 100% 29.64 in 1 mi SSE 4.5 mph - -   Mist
8:20 AM 33.8 °F 27.0 °F 33.8 °F 100% 29.62 in - SSE 8.1 mph - N/A   Overcast
8:50 AM 33.8 °F 27.7 °F 33.8 °F 100% 29.62 in - SSE 6.9 mph - N/A   Overcast
9:20 AM 33.8 °F 27.7 °F 33.8 °F 100% 29.62 in 3.1 mi SSE 6.9 mph - N/A   Overcast
9:50 AM 33.8 °F 27.7 °F 33.8 °F 100% 29.65 in 4.3 mi South 6.9 mph - N/A   Overcast
10:20 AM 35.6 °F 29.9 °F 33.8 °F 93% 29.65 in 5.0 mi SSE 6.9 mph - N/A   Overcast
10:50 AM 35.6 °F 30.7 °F 35.6 °F 100% 29.65 in 5.6 mi SSE 5.8 mph - N/A   Overcast
11:00 AM 35 °F - 35 °F 100% 29.66 in 6 mi SSE 6.7 mph - -   Mist
11:20 AM 35.6 °F 29.2 °F 35.6 °F 100% 29.65 in 6.2 mi South 8.1 mph - N/A   Overcast
11:50 AM 35.6 °F 29.9 °F 35.6 °F 100% 29.65 in 6.2 mi South 6.9 mph - N/A   Overcast
12:20 PM 35.6 °F 31.7 °F 35.6 °F 100% 29.65 in 6.2 mi SSE 4.6 mph - N/A   Overcast
12:50 PM 35.6 °F 29.9 °F 35.6 °F 100% 29.65 in 6.2 mi South 6.9 mph - N/A   Overcast
1:20 PM 35.6 °F 31.7 °F 35.6 °F 100% 29.65 in 6.2 mi South 4.6 mph - N/A   Overcast
1:50 PM 35.6 °F 30.7 °F 35.6 °F 100% 29.65 in 5.6 mi South 5.8 mph - N/A   Overcast
2:00 PM 36 °F - 35 °F 95% 29.66 in 8 mi SSE 4.5 mph - -   Partly Cloudy
2:20 PM 35.6 °F 31.7 °F 35.6 °F 100% 29.65 in 5.6 mi SSE 4.6 mph - N/A   Overcast
2:50 PM 35.6 °F 32.8 °F 35.6 °F 100% 29.65 in 6.2 mi SSE 3.5 mph - N/A   Overcast
3:20 PM 35.6 °F 32.8 °F 35.6 °F 100% 29.65 in 6.2 mi ESE 3.5 mph - N/A   Overcast
3:50 PM 35.6 °F 31.7 °F 35.6 °F 100% 29.65 in 5.6 mi SE 4.6 mph - N/A   Overcast
4:20 PM 35.6 °F 32.8 °F 33.8 °F 93% 29.65 in 5.0 mi ESE 3.5 mph - N/A   Overcast
4:50 PM 35.6 °F 30.7 °F 35.6 °F 100% 29.65 in 4.3 mi SE 5.8 mph - N/A   Overcast
5:00 PM 36 °F - 35 °F 95% 29.68 in 6 mi SE 4.5 mph - -   Mist
5:20 PM 35.6 °F 32.8 °F 33.8 °F 93% 29.65 in 4.3 mi SE 3.5 mph - N/A   Overcast
5:50 PM 35.6 °F 31.7 °F 33.8 °F 93% 29.65 in 2.5 mi SE 4.6 mph - N/A   Light Drizzle
6:20 PM 35.6 °F 32.8 °F 33.8 °F 93% 29.65 in 3.7 mi SSE 3.5 mph - N/A   Overcast
6:50 PM 35.6 °F 31.7 °F 33.8 °F 93% 29.65 in - SE 4.6 mph - N/A   Light Drizzle
7:20 PM 35.6 °F 32.8 °F 33.8 °F 93% 29.65 in 0.7 mi SE 3.5 mph - N/A   Overcast
7:50 PM 33.8 °F - 33.8 °F 100% 29.65 in 0.2 mi Variable 2.3 mph - N/A Fog Light Drizzle
8:00 PM 35 °F - 35 °F 97% 29.69 in 1 mi SSE 2.2 mph - -   Mist
8:20 PM 33.8 °F - 33.8 °F 100% 29.68 in 0.2 mi SE 2.3 mph - N/A Fog , Rain Light Rain
8:50 PM 33.8 °F 30.8 °F 33.8 °F 100% 29.65 in 0.1 mi ESE 3.5 mph - N/A Fog Fog
9:20 PM 33.8 °F - 33.8 °F 100% 29.65 in 0.1 mi Variable 2.3 mph - N/A Fog Fog
9:50 PM 33.8 °F - 33.8 °F 100% 29.65 in 0.1 mi Variable 2.3 mph - N/A Fog Fog
10:20 PM 33.8 °F - 33.8 °F 100% 29.65 in 0.2 mi South 2.3 mph - N/A Fog , Rain Light Rain
10:50 PM 33.8 °F - 33.8 °F 100% 29.65 in 1.0 mi SSE 2.3 mph - N/A Fog Patches of Fog
11:00 PM 34 °F - 34 °F 100% 29.69 in 2 mi SSW 2.2 mph - - Rain Light Rain
11:20 PM 33.8 °F - 33.8 °F 100% 29.65 in 1.0 mi SSE 2.3 mph - N/A Rain Light Rain
11:50 PM 33.8 °F - 33.8 °F 100% 29.65 in 1.5 mi SSE 2.3 mph - N/A Rain Rain